Location: Moscow
(55.7500°N, 37.5830°E)
Time: 21:14:50
(UTC+03:00)

ISS - Pass Details

Date: 23 May 2021
Orbit: 417 x 422 km, 51.6° (Epoch: 16 June)

Event Time Altitude Azimuth Distance (km) Brightness Sun altitude
Rises 21:36:59 0° 263° (W) 2,366 0.5 -5.5°
Reaches altitude 10° 21:39:09 10° 256° (WSW) 1,502 -0.6 -5.7°
Maximum altitude 21:42:20 40° 185° (S) 635 -3.2 -6.0°
Drops below altitude 10° 21:45:31 10° 115° (ESE) 1,504 -1.5 -6.3°
Enters shadow 21:46:34 - 110° (ESE) 1,914 -0.9 -6.4°
